Showing default

BRO-19, 68422

Orbit data source: Space-Track

BRO-19, 68422 is a French payload satellite in SSO that was launched on Mon, 30 Mar 2026 UTC via an FALCON 9 launch vehicle from the Air Force Western Test Range (AFWTR). Payload-class satellites include a variety of spacecraft equipped with specific instruments for various scientific and technological missions. These include communications satellites like Starlink; space stations such as the ISS; scientific satellites like the Hubble; Earth observation satellites from companies like Planet Labs, Umbra, and HawkEye 360; GPS; miniature CubeSats for education and research; and military/defense satellites.

Loading next visibility...
Identifier
68422, 2026-067G
Orbit
SSO
Country
Flag of FRFR
Related business
None
Manufacturer
Unknown
Mission
Operational spacecraft
Bus & Motor
Unknown
Mass
Unknown
Launch date (UTC)
2026-03-30 (1 month ago)
Launch vehicle
FALCON 9
Launch site
Air Force Western Test Range (AFWTR)
Object type
Payload
Rocket body
Debris
Shape & HBR
Unknown shape, 1.1 m
Radar Cross Section
RCS unknown

Expand to show TLE details & history
Last TLE update: 15 hours ago

TLE from 15 hours ago
0 BRO-19
1 68422U 26067G   26127.13175617  .00002326  00000-0  11597-3 0  9991
2 68422  97.4458  86.1988 0002548  73.0432 287.1081 15.18526547  5713
Epoch: 2026-05-07T03:09Z
TLE epoch observation values (Epoch: 2026-05-07T03:09:43.733Z)
Latitude
-0.00004°
Longitude
173.78429°
Altitude
512.864 km
Speed
7.608 km/s
True Right ascension
05h 44m 47s
True Declination
0° 00' 00"
Sunlit
Object was in daylight at epoch
Visualization orbit readout
Latitude
Unknown
Longitude
Unknown
Altitude
Unknown
Speed
Unknown
Apparent Right ascension
Unknown
Apparent Declination
Unknown
Sunlit
N/A
Visualization observer readout
Local Sidereal Time
01:57:49
Azimuth
Unknown
Elevation
Unknown
Doppler factor
Unknown
Orbital elements
Apogee altitude
509.017 km
Perigee altitude
505.508 km
Semi-major axis
6,885.399 km
Eccentricity
0.00025
Inclination
97.4458°
RAAN
86.1988°
Arg. of periapsis
73.0432°
True anomaly
287.08019°
Mean anomaly
287.1081°
Eccentric anomaly
287.09415°
Mean motion
3.79883 °/min
Orbital period
94.77 mins
BSTAR
0.00011597
Loading maneuver chart data...
Computing Atmospheric mass density...
Loading historical data...
Loading historical data...
Loading historical data...
Loading historical data...
Loading historical data...
Loading historical data...
Loading historical data...

Documentation

Showing up to 5 results
|